Regional Weather Roundup
Issued by NWS

Home | Current Version | Previous Version | Graphics & Text | Print | Product List | Glossary On
Versions: 1 2 3 4 5 6 7 8 9 10 11 12 13 14 15 16 17 18 19 20 21 22 23 24 25 26 27 28 29 30 31 32 33 34 35 36 37 38 39 40 41 42 43 44 45 46 47 48 49 50
902
ASUS45 KTFX 122010
RWRMT
MONTANA REGIONAL WEATHER ROUNDUP
NATIONAL WEATHER SERVICE GREAT FALLS MT
100 PM MST FRI FEB 12 2016

NOTE: "FAIR" INDICATES FEW OR NO CLOUDS BELOW 12000 FEET WITH NO
SIGNIFICANT WEATHER AND/OR OBSTRUCTIONS TO VISIBILITY.

MTZ001>007-043-122100-
WEST OF THE DIVIDE

CITY           SKY/WX    TMP DP  RH WIND       PRES   REMARKS
KALISPELL      CLOUDY    36  35  96 N3        30.18R FOG
MISSOULA       PTSUNNY   39  37  92 SW6       30.19F FOG
BUTTE          CLOUDY    39  34  82 CALM      30.19F
MULLAN PASS    CLOUDY    35  34  96 SW9       30.16F WCI  28
ANACONDA         N/A     55  34  44 S10       30.15F
DEER LODGE       N/A     45  37  76 N6        30.19S
HAMILTON         N/A     41  41 100 NE7       30.17F
PLAINS           N/A     44  40  86 CALM      30.17F
$$

MTZ008-052>055-122100-
SOUTHWEST MONTANA

CITY           SKY/WX    TMP DP  RH WIND       PRES   REMARKS
BOZEMAN        CLOUDY    39  34  82 NE3       30.18F
DILLON         CLOUDY    46  33  60 VRB6      30.18F
ENNIS          SUNNY     54  27  35 S21G28    30.25F
TWIN BRIDGES     N/A     42  32  68 NE3       30.16F
$$

MTZ009-010-012-014-046-048-049-054-122100-
EAST SLOPES AND CENTRAL MONTANA

CITY           SKY/WX    TMP DP  RH WIND       PRES   REMARKS
CUT BANK       PTSUNNY   39  32  76 SE16      30.07F WCI  30
GREAT FALLS    CLOUDY    47  37  68 MISG      30.10F
MALMSTROM AFB  CLOUDY    42  38  86 NE6       30.11F
HELENA         CLOUDY    48  35  60 NW3       30.16F
CHOTEAU          N/A     43  34  70 CALM      30.10F
CONRAD           N/A     41  36  82 E6        30.11F
$$

MTZ011-013-016-021-045-047-050-051-122100-
NORTH CENTRAL MONTANA

CITY           SKY/WX    TMP DP  RH WIND       PRES   REMARKS
HAVRE          CLOUDY    32  26  78 NE15G22   30.17F WCI  22
LEWISTOWN      CLOUDY    39  32  76 SE14      30.14F WCI  31
N BAR RANCH    PTSUNNY   34  34 100 SE7G13    30.19F WCI  28
CHINOOK          N/A     27  23  86 E18G28    30.22F WCI  13
$$

MTZ017>020-022>027-061-062-122100-
NORTHEAST MONTANA

CITY           SKY/WX    TMP DP  RH WIND       PRES   REMARKS
GLASGOW        CLOUDY    16   9  74 E17       30.38F WCI   0
JORDAN           N/A     28  25  88 E12       30.30F WCI  18
SIDNEY         CLOUDY    19   9  63 E7        30.49S WCI  10
WOLF POINT     CLOUDY    16   7  67 E15       30.46F WCI   1
PLENTYWOOD       N/A      9  -2  61 SE9       30.49F WCI  -5
POPLAR           N/A     12   5  73 E10       30.48F WCI  -1
$$

MTZ028>42-056>058-122100-
SOUTHCENTRAL AND SOUTHEAST MONTANA

CITY           SKY/WX    TMP DP  RH WIND       PRES   REMARKS
BAKER          CLOUDY    26  16  65 SE17      30.36F WCI  13
BILLINGS       CLOUDY    40  32  73 NE9       30.20F
LIVINGSTON     CLOUDY    53  34  48 NW18      30.15F
MILES CITY     CLOUDY    32  25  75 NE10      30.33F WCI  24
FORSYTH          N/A     36  27  69 E14       30.29F WCI  27
LAUREL           N/A     42  31  65 N2        30.17F
ROUNDUP          N/A     40  29  65 E1        30.11F
$$

REGIONAL REPORTS...DAKOTAS

CITY           SKY/WX    TMP DP  RH WIND       PRES   REMARKS
WILLISTON      CLOUDY    14   0  53 E7        30.52F WCI   4
MINOT          SUNNY      9  -7  48 CALM      30.59F
DICKINSON      SUNNY     11  -2  56 E9        30.44F WCI  -2
BEACH          CLOUDY    16  14  93 SE12      30.44F WCI   3
CROSBY           N/A     10  -2  56 E5        30.56F
TIOGA            N/A      9  -2  61 S7        30.56F WCI  -3
WATFORD CITY     N/A     16   0  48 E8        30.51F WCI   5
BISMARCK       SUNNY     13  -1  54 VRB5      30.59F
GRAND FORKS    MOSUNNY    0 -10  63 N15       30.67S WCI -19
FARGO          PTSUNNY    2  -9  60 N16       30.65S WCI -18
BUFFALO SD       N/A     24  17  74 E12       30.31F WCI  13
RAPID CITY     FOG       26  25  96 SE15      30.36F VSB 1/2 WCI  14
$$

REGIONAL REPORTS...WYOMING/IDAHO/WASHINGTON

CITY           SKY/WX    TMP DP  RH WIND       PRES   REMARKS
GILLETTE       CLOUDY    36  30  79 S10       30.25F WCI  28
SHERIDAN       CLOUDY    45  31  58 VRB6      30.20F
BUFFALO WY     CLOUDY    43  31  62 SE13      30.20F
CODY           SUNNY     54  25  32 E8        30.16F
YELLOWSTONE LA   N/A     43  16  33 SW6       30.31F
IDAHO FALLS    CLOUDY    30  25  81 N3        30.33F
SALMON         SUNNY     30  23  74 CALM      30.29F
BOISE          MOSUNNY   45  32  60 E5        30.29F
SPOKANE        PTSUNNY   44  41  89 SE5       30.16F
$$

REGIONAL REPORTS...ALBERTA

CITY           SKY/WX    TMP DP  RH WIND       PRES   REMARKS
EDMONTON       CLOUDY    21  14  73 SE16      30.12F WCI   7
CALGARY        FOG       25  23  93 SE12      30.03F VSB 1/4 WCI  14
LETHBRIDGE     CLOUDY    45  36  70 S8        30.03F
MEDICINE HAT   FLURRIES  37  30  75 E6        30.14F
WATERTON GATE    N/A     52  32  46 SW18G35     N/A
MILK RIVER       N/A     37  34  87 S20G26      N/A  WCI  27
ONEFOUR          N/A     25  25 100 E17         N/A  WCI  11
$$

REGIONAL REPORTS...SASKATCHEWAN

CITY           SKY/WX    TMP DP  RH WIND       PRES   REMARKS
SWIFT CURRENT  CLOUDY    14   7  73 SE18      30.29F WCI  -3
REGINA         PTSUNNY   10  -2  56 SE13      30.52F WCI  -5
SASKATOON      PTSUNNY    7  -4  61 SE13      30.51F WCI  -9
CYPRESS HILLS    N/A     19  18  93 SE6         N/A  WCI  11
ROCKGLEN         N/A      9  -2  61 SE13        N/A  WCI  -7
ASSINIBOIA       N/A     16   9  73 SE12        N/A  WCI   3
$$




USA.gov is the U.S. government's official web portal to all federal, state and local government web resources and services.